Weather in Zagorye

Russia / Yaroslavl Oblast     57°01′45″N   38°21′01″E
temp.,
°C
wind,
m/s
gust,
m/s
humid.,
%
clouds,
%
prec.,
mm/h
press.,
hPa
HPBL,
m
24 july, sat
sat2400:00+13nw386946 0.0 1009215
03:00+12wnw2470100 0.1 101080
06:00+12nnw4878100 0.0 1011271
09:00+15n455998 0.0 1012950
12:00+19nnw444699 0.1 10132095
15:00+18nne4447100 0.1 1014950
18:00+16nw125496 0.0 1016198
21:00+13sw226340 0.0 101716
25 july, sun
sun2500:00+10sw23734 0.0 101823
03:00+9sw227864 0.0 101912
06:00+14wsw2362100 0.0 102093
09:00+18sw3351100 0.0 1020413
12:00+21sw234029 0.0 10211707
15:00+23sw343247 0.0 10202544
18:00+21sw4644100 0.0 1020767
21:00+17sw2255100 0.0 102133
26 july, mon
mon2600:00+16wsw2358100 0.0 102265
03:00+16wsw2359100 0.0 102365
06:00+16sw3560100 0.0 1023131
09:00+21wsw345094 0.0 1023519
12:00+23wsw23415 0.0 10231244
15:00+23wsw4544100 0.0 10221228
18:00+25w354322 0.0 10221249
21:00+18wsw33595 0.0 102225
27 july, tue
tue2700:00+17wsw346624 0.0 102359
03:00+14w23805 0.0 102334
06:00+16w25765 0.0 1023124
09:00+23w34506 0.0 1022556
12:00+27w443565 0.0 10212613
15:00+27w4436100 0.0 10202020
18:00+25n234487 0.0 1019943
21:00+19sw116219 0.1 102011
28 july, wed
wed2800:00+17wsw348114 0.0 102053
03:00+15sw23861 0.0 101930
06:00+17sw24825 0.0 1018100
09:00+24sw46564 0.1 1017532
12:00+28wsw564020 0.0 10152428
15:00+26ssw464132 0.0 10131704
18:00+26wsw584767 0.0 1012723
21:00+20sw496539 0.0 1011183